Date and Time,30m Wind Direction,30m Wind Speed,30m Wind Vert,30m Quality,40m Wind Direction,40m Wind Speed,40m Wind Vert,40m Quality,50m Wind Direction,50m Wind Speed,50m Wind Vert,50m Quality,60m Wind Direction,60m Wind Speed,60m Wind Vert,60m Quality,80m Wind Direction,80m Wind Speed,80m Wind Vert,80m Quality,100m Wind Direction,100m Wind Speed,100m Wind Vert,100m Quality,120m Wind Direction,120m Wind Speed,120m Wind Vert,120m Quality,140m Wind Direction,140m Wind Speed,140m Wind Vert,140m Quality,160m Wind Direction,160m Wind Speed,160m Wind Vert,160m Quality,180m Wind Direction,180m Wind Speed,180m Wind Vert,180m Quality,200m Wind Direction,200m Wind Speed,200m Wind Vert,200m Quality,30m Wind Turbulence,40m Wind Turbulence,50m Wind Turbulence,60m Wind Turbulence,80m Wind Turbulence,100m Wind Turbulence,120m Wind Turbulence,140m Wind Turbulence,160m Wind Turbulence,180m Wind Turbulence,200m Wind Turbulence
8/10/2020 12:00 AM,199.5,7.07,0.04,98.0,196.7,7.38,-0.05,99.0,199.8,7.54,-0.11,98.0,199.6,8.15,-0.03,99.0,201.4,8.36,0.04,98.0,200.7,8.88,0.02,98.0,200.6,9.49,-0.04,98.0,200.0,9.5,-0.04,95.0,204.3,9.77,-0.12,95.0,204.0,9.89,-0.03,96.0,204.7,10.54,-0.11,96.0,0.09,0.11,0.11,0.06,0.12,0.12,0.1,0.16,0.14,0.14,0.13
8/10/2020 12:10 AM,201.4,7.42,0.0,99.0,202.4,8.19,-0.01,99.0,200.9,8.49,-0.04,99.0,204.9,8.62,-0.06,98.0,200.7,9.19,0.02,98.0,203.6,9.33,-0.01,99.0,202.5,9.97,0.03,96.0,202.2,9.44,-0.06,95.0,204.0,9.23,-0.16,93.0,204.2,9.43,-0.24,93.0,203.1,10.91,-0.03,93.0,0.1,0.08,0.07,0.07,0.07,0.09,0.14,0.14,0.12,0.17,0.12
8/10/2020 12:20 AM,206.2,7.19,0.06,98.0,204.9,7.72,0.0,98.0,201.8,8.02,0.09,98.0,204.5,8.1,0.07,97.0,205.7,8.58,0.03,96.0,203.0,8.42,0.06,95.0,207.8,8.13,0.2,96.0,197.9,8.65,0.37,94.0,208.8,8.98,0.27,94.0,202.5,10.97,0.39,93.0,200.8,10.25,0.56,94.0,0.08,0.08,0.09,0.1,0.11,0.22,0.35,0.33,0.31,0.27,0.31
8/10/2020 12:30 AM,207.9,7.47,0.02,98.0,208.6,7.73,0.08,95.0,217.0,8.07,0.29,92.0,212.1,9.1,0.44,89.0,233.2,7.4,0.96,80.0,272.2,6.31,1.14,59.0,251.0,10.59,1.94,58.0,266.3,10.86,2.06,44.0,273.4,8.63,2.21,35.0,279.7,12.09,3.01,55.0,291.6,20.97,3.36,30.0,0.08,0.14,0.32,0.4,0.58,0.45,0.43,0.33,0.33,0.73,0.18
8/10/2020 12:40 AM,208.5,6.22,0.11,96.0,205.5,7.46,0.18,90.0,215.5,8.14,0.34,79.0,218.8,5.8,0.44,39.0,207.4,9.64,0.91,22.0,240.7,6.97,1.4,16.0,201.2,10.44,0.98,25.0,233.6,13.73,1.44,16.0,326.9,13.45,3.43,9.0,337.1,23.46,2.59,2.0,296.4,11.26,4.31,7.0,0.24,0.37,0.33,0.92,0.32,0.64,0.34,0.51,0.25,0.17,0.76
8/10/2020 12:50 AM,215.3,5.63,0.12,91.0,224.5,5.07,0.38,73.0,296.3,4.91,0.85,34.0,258.2,5.34,0.7,23.0,307.5,11.11,1.3,19.0,296.0,9.38,3.11,16.0,299.3,20.45,3.21,7.0,241.0,7.89,6.23,4.0,283.4,9.69,4.91,5.0,272.4,15.14,5.11,2.0,271.4,11.61,5.22,5.0,0.35,0.56,0.43,0.41,0.14,0.24,0.16,0.24,0.46,0.18,0.31
8/10/2020 1:00 AM,200.0,6.45,0.03,92.0,199.4,8.18,0.13,67.0,199.5,10.04,0.45,20.0,193.4,9.25,0.17,4.0,180.2,15.86,0.73,6.0,,,,,159.4,3.66,2.51,1.0,,,,,,,,,,,,,,,,,0.14,0.34,0.3,0.46,0.11,,0.26,,,,
8/10/2020 1:10 AM,203.8,5.4,0.05,93.0,202.8,6.54,0.11,86.0,200.4,6.6,0.34,27.0,165.5,13.73,1.41,4.0,127.1,25.41,4.43,2.0,249.7,6.9,1.42,1.0,137.8,19.44,6.26,1.0,177.2,32.14,5.33,4.0,272.8,41.49,1.46,1.0,,,,,171.9,11.28,7.66,2.0,0.17,0.28,0.53,0.22,0.13,0.35,0.12,0.12,0.28,,0.06
8/10/2020 1:20 AM,204.6,6.77,0.11,93.0,201.0,8.18,0.02,80.0,199.6,9.33,0.26,23.0,190.6,11.95,0.49,7.0,214.1,5.9,0.12,1.0,168.3,17.4,1.58,6.0,256.2,16.49,2.14,3.0,221.0,20.85,1.12,2.0,,,,,,,,,,,,,0.16,0.1,0.15,0.16,0.29,0.16,0.12,0.12,,,
8/10/2020 1:30 AM,209.8,6.45,0.07,94.0,201.2,7.24,0.19,87.0,193.6,9.18,0.5,32.0,201.4,9.95,0.25,8.0,,,,,224.7,26.65,3.19,1.0,,,,,209.4,23.09,-1.28,1.0,,,,,,,,,,,,,0.14,0.17,0.24,0.22,,0.14,,0.18,,,
8/10/2020 1:40 AM,205.5,4.96,0.15,92.0,201.1,6.32,0.21,39.0,213.8,8.02,0.14,17.0,,,,,,,,,,,,,,,,,219.2,10.25,0.05,4.0,206.2,8.91,0.03,13.0,213.9,10.27,-0.06,14.0,222.3,14.01,0.13,3.0,0.1,0.25,0.13,,,,,0.14,0.13,0.11,0.14
8/10/2020 1:50 AM,207.4,4.79,0.11,93.0,201.0,5.62,0.23,88.0,210.7,6.87,0.23,39.0,215.2,6.53,-0.04,30.0,212.5,8.21,-0.2,23.0,208.0,8.55,-0.09,32.0,204.8,8.5,-0.05,40.0,211.5,9.9,-0.04,48.0,212.8,10.54,0.02,51.0,214.6,11.32,-0.05,38.0,180.0,13.32,1.38,6.0,0.17,0.34,0.34,0.36,0.19,0.34,0.31,0.19,0.23,0.25,0.17
8/10/2020 2:00 AM,207.6,5.32,0.05,95.0,204.1,5.96,-0.01,89.0,208.2,7.98,-0.17,55.0,212.2,6.39,-0.02,46.0,230.2,5.9,0.03,39.0,209.9,10.13,-0.3,42.0,208.2,6.99,0.13,47.0,239.7,9.02,-0.23,37.0,220.6,8.54,0.11,37.0,262.3,7.77,0.67,25.0,246.9,4.25,-0.04,6.0,0.15,0.16,0.23,0.52,0.44,0.26,0.68,0.31,0.31,0.25,2.38
8/10/2020 2:10 AM,204.5,6.46,0.06,97.0,200.7,8.0,0.04,92.0,212.5,7.33,0.22,86.0,211.5,7.77,0.13,35.0,182.4,6.6,-0.05,14.0,205.8,16.75,-0.34,19.0,211.8,15.72,0.46,14.0,168.4,21.36,2.24,3.0,192.2,21.28,3.58,2.0,256.9,7.46,3.57,6.0,219.9,19.44,2.28,5.0,0.1,0.12,0.32,0.32,1.21,0.24,0.36,0.21,0.13,0.49,0.5
8/10/2020 2:20 AM,209.4,6.23,0.04,97.0,205.9,7.26,-0.05,91.0,204.0,8.36,0.1,61.0,201.6,7.55,0.1,46.0,211.5,9.43,0.02,36.0,219.9,2.4,0.05,26.0,218.2,8.43,0.01,21.0,82.6,24.56,-3.21,10.0,109.9,24.44,1.33,8.0,49.5,32.22,-2.33,6.0,189.9,6.65,-0.16,1.0,0.09,0.13,0.2,0.34,0.26,0.96,1.19,0.35,0.24,0.19,0.32
8/10/2020 2:30 AM,206.7,7.06,0.08,97.0,202.5,8.0,0.05,91.0,203.7,7.96,0.06,56.0,224.9,6.91,0.2,29.0,208.9,10.75,0.22,24.0,232.7,3.31,1.3,4.0,224.7,12.08,0.62,6.0,245.2,19.2,2.3,3.0,292.8,7.52,1.22,10.0,,,,,261.7,29.28,1.85,4.0,0.1,0.16,0.16,0.31,0.19,0.37,0.32,0.25,0.58,,0.21
8/10/2020 2:40 AM,207.2,6.48,0.01,97.0,204.6,7.81,0.07,92.0,202.3,9.41,0.14,77.0,216.2,4.57,0.44,47.0,202.7,6.75,0.27,30.0,218.8,8.14,-0.03,39.0,204.5,8.97,0.47,40.0,224.1,9.73,0.04,27.0,224.3,8.82,0.27,20.0,247.6,8.98,0.2,9.0,210.8,9.81,0.54,19.0,0.1,0.2,0.25,0.66,3.16,0.5,0.63,0.42,0.4,0.45,0.76
8/10/2020 2:50 AM,208.0,5.97,0.06,96.0,203.5,6.67,0.0,92.0,208.6,7.75,0.13,66.0,211.7,8.51,0.03,51.0,220.9,6.92,-0.25,49.0,212.9,8.82,-0.05,69.0,209.3,9.35,0.02,90.0,212.4,10.25,-0.04,82.0,217.9,10.76,-0.15,83.0,215.2,10.75,0.02,56.0,219.9,13.06,-0.09,33.0,0.13,0.12,0.28,0.34,0.29,0.17,0.15,0.12,0.15,0.16,0.1
8/10/2020 3:00 AM,217.8,5.62,0.12,97.0,211.2,6.62,-0.02,91.0,208.2,8.48,0.0,86.0,207.9,9.69,-0.14,62.0,209.4,8.9,-0.11,61.0,213.7,9.99,-0.09,84.0,213.3,11.15,-0.19,88.0,213.8,11.5,-0.15,69.0,209.3,12.35,0.0,48.0,208.0,15.7,-0.23,19.0,,,,,0.1,0.12,0.24,0.15,0.08,0.1,0.11,0.09,0.16,0.21,
8/10/2020 3:10 AM,217.5,7.16,0.12,96.0,213.9,8.63,0.0,91.0,212.1,10.19,-0.06,65.0,210.6,11.76,-0.17,59.0,203.1,11.45,-0.18,36.0,211.9,13.3,-0.63,32.0,210.7,14.31,-0.22,36.0,205.0,16.98,-0.72,20.0,212.7,23.88,-1.92,10.0,217.2,24.52,-0.6,3.0,228.2,39.13,0.31,2.0,0.09,0.1,0.15,0.14,0.21,0.19,0.19,0.1,0.09,0.07,0.1
8/10/2020 3:20 AM,212.2,7.86,0.07,97.0,208.9,9.39,0.02,94.0,206.8,11.23,-0.01,85.0,204.1,14.17,-0.37,56.0,203.5,19.11,-0.93,43.0,199.3,21.37,-0.85,32.0,206.8,18.02,-0.82,25.0,195.9,20.44,-0.75,19.0,209.3,23.21,-1.16,4.0,235.7,34.1,-2.11,1.0,171.3,37.99,2.86,2.0,0.08,0.11,0.13,0.14,0.11,0.13,0.14,0.15,0.18,0.13,0.2
8/10/2020 3:30 AM,216.1,8.15,-0.05,96.0,210.3,10.08,-0.1,94.0,207.4,12.14,-0.17,88.0,202.8,12.13,-0.19,63.0,212.0,14.9,-0.77,39.0,206.5,15.3,-0.53,23.0,204.4,17.05,-0.55,14.0,198.8,20.41,-0.94,18.0,214.6,33.32,-0.26,2.0,229.5,44.44,0.22,3.0,,,,,0.08,0.1,0.14,0.13,0.11,0.11,0.16,0.21,0.14,0.07,
8/10/2020 3:40 AM,213.8,9.12,0.08,94.0,212.2,10.03,0.01,93.0,210.7,11.55,-0.11,91.0,206.7,13.56,-0.19,62.0,209.7,13.56,-0.34,51.0,215.9,13.52,-0.41,57.0,205.9,17.53,-0.63,34.0,219.4,26.96,-1.5,4.0,189.7,16.32,-2.39,1.0,230.6,41.36,-0.59,1.0,194.5,10.72,-2.99,1.0,0.07,0.1,0.11,0.14,0.12,0.17,0.13,0.1,0.23,0.07,0.19
8/10/2020 3:50 AM,219.9,8.9,-0.02,94.0,214.3,10.14,-0.09,94.0,215.2,11.3,-0.07,90.0,215.3,12.31,-0.2,88.0,211.8,11.87,-0.14,84.0,215.9,14.1,-0.19,71.0,221.1,17.9,-0.7,10.0,210.9,17.85,-0.73,18.0,165.3,34.73,2.47,2.0,230.3,44.5,0.4,1.0,214.8,9.44,-2.89,3.0,0.08,0.08,0.16,0.18,0.16,0.09,0.14,0.23,0.11,0.06,0.16
8/10/2020 4:00 AM,215.8,8.19,0.0,95.0,215.9,8.79,0.05,92.0,227.4,7.33,0.47,87.0,219.6,9.86,0.25,65.0,220.9,7.29,0.58,49.0,269.7,5.11,0.38,44.0,251.4,8.17,0.01,34.0,212.1,9.82,0.45,27.0,168.5,6.34,1.29,15.0,110.8,22.53,1.94,3.0,81.8,23.68,-0.12,2.0,0.09,0.22,0.48,0.32,0.36,1.33,0.44,0.45,0.51,1.62,0.76
8/10/2020 4:10 AM,218.8,9.01,0.03,94.0,215.7,10.1,-0.02,92.0,219.7,12.09,-0.15,87.0,228.3,12.24,-0.39,80.0,245.0,12.29,-0.63,57.0,222.6,15.73,-0.47,52.0,249.6,17.11,-1.05,32.0,226.2,10.21,-1.13,8.0,262.5,11.67,-0.95,5.0,251.7,29.81,0.65,8.0,255.3,9.57,-2.0,2.0,0.1,0.19,0.2,0.33,0.42,0.28,0.24,0.48,0.28,0.22,0.52
8/10/2020 4:20 AM,216.6,7.69,0.04,90.0,213.2,9.3,0.01,93.0,220.9,9.89,0.04,83.0,239.0,11.43,0.06,68.0,248.9,11.26,0.36,35.0,234.8,11.37,0.17,48.0,225.9,12.5,0.09,77.0,240.0,11.15,0.12,49.0,254.1,19.75,1.11,12.0,251.2,29.94,2.6,6.0,249.5,33.63,0.9,11.0,0.13,0.17,0.27,0.28,0.27,0.28,0.3,0.21,0.44,0.14,0.11
8/10/2020 4:30 AM,217.2,7.27,0.07,93.0,219.2,8.53,-0.03,92.0,219.4,9.33,-0.15,82.0,221.6,10.28,-0.34,61.0,218.6,12.33,-0.53,78.0,216.3,12.12,-0.33,89.0,218.6,11.5,-0.16,90.0,226.0,12.35,-0.27,91.0,228.0,16.1,-1.16,6.0,208.4,9.95,-2.91,1.0,163.3,0.87,-4.01,1.0,0.1,0.1,0.14,0.13,0.14,0.11,0.06,0.1,0.12,0.32,1.78
8/10/2020 4:40 AM,217.2,6.71,0.13,92.0,216.1,7.79,-0.09,92.0,214.0,9.19,-0.04,89.0,216.5,10.41,-0.35,78.0,216.4,11.62,-0.35,60.0,217.6,10.17,-0.13,88.0,222.2,10.91,-0.17,91.0,227.7,12.75,-0.5,63.0,194.8,23.22,-1.74,10.0,,,,,233.6,48.57,-0.08,2.0,0.1,0.16,0.14,0.13,0.16,0.11,0.13,0.1,0.39,,0.05
8/10/2020 4:50 AM,224.8,6.45,0.09,95.0,216.0,7.45,0.0,91.0,213.7,8.9,-0.08,88.0,222.1,9.48,-0.22,87.0,218.2,9.18,-0.14,90.0,221.2,9.47,-0.11,93.0,224.1,10.24,-0.17,89.0,216.9,16.41,-0.7,18.0,,,,,225.0,55.5,-0.86,2.0,203.6,25.88,-3.77,1.0,0.09,0.18,0.17,0.16,0.14,0.09,0.13,0.13,,0.08,0.18
8/10/2020 5:00 AM,218.3,5.35,0.05,96.0,212.5,6.21,-0.02,93.0,218.1,7.44,-0.06,90.0,217.7,7.89,-0.09,91.0,222.9,8.44,-0.05,95.0,222.4,8.84,-0.06,95.0,224.8,9.99,-0.04,90.0,225.2,13.04,-0.29,15.0,,,,,,,,,238.5,2.33,-7.92,1.0,0.15,0.16,0.16,0.14,0.07,0.08,0.14,0.13,,,0.68
8/10/2020 5:10 AM,227.8,5.29,0.04,98.0,219.0,5.67,-0.04,97.0,224.0,6.54,0.04,95.0,225.8,7.12,0.01,94.0,228.4,7.63,-0.03,94.0,227.9,8.27,-0.06,94.0,229.9,8.87,-0.06,93.0,235.5,9.25,-0.12,81.0,230.2,11.63,-0.19,34.0,213.8,37.38,-1.48,9.0,,,,,0.09,0.11,0.06,0.11,0.05,0.07,0.08,0.07,0.13,0.07,
8/10/2020 5:20 AM,229.5,4.87,-0.02,98.0,223.6,5.36,-0.1,99.0,225.5,6.07,-0.06,98.0,227.0,6.43,-0.08,97.0,228.0,7.36,-0.09,98.0,228.5,8.17,-0.11,97.0,233.9,8.64,-0.09,96.0,232.8,10.5,-0.24,92.0,224.1,15.78,-0.86,23.0,230.0,16.33,-1.68,1.0,155.6,4.31,-3.73,8.0,0.12,0.1,0.07,0.06,0.08,0.06,0.05,0.07,0.11,0.44,1.12
8/10/2020 5:30 AM,224.7,4.5,-0.02,95.0,221.3,4.55,-0.1,97.0,224.6,5.22,-0.05,95.0,229.4,6.24,-0.04,96.0,230.5,6.26,-0.04,97.0,236.1,7.19,-0.06,97.0,234.2,8.04,-0.03,96.0,232.2,9.34,-0.05,95.0,238.1,11.31,-0.17,87.0,241.6,24.13,-0.27,5.0,236.2,12.4,-2.15,5.0,0.07,0.11,0.27,0.18,0.15,0.12,0.1,0.18,0.18,0.12,0.22
8/10/2020 5:40 AM,232.6,4.32,0.01,96.0,227.5,4.55,-0.01,97.0,227.7,5.44,-0.03,96.0,235.1,5.32,0.01,97.0,233.3,5.9,-0.02,96.0,236.6,6.45,0.04,97.0,236.3,7.55,-0.01,97.0,238.6,8.5,-0.03,97.0,240.0,9.73,-0.02,96.0,235.5,12.03,-0.11,51.0,231.2,35.65,-0.77,6.0,0.07,0.06,0.12,0.09,0.15,0.15,0.09,0.06,0.09,0.22,0.17
8/10/2020 5:50 AM,235.2,4.23,0.01,98.0,233.0,4.54,-0.05,98.0,233.1,5.09,0.01,96.0,236.0,5.4,-0.05,96.0,237.7,6.07,-0.03,96.0,237.6,6.46,0.0,97.0,234.3,8.06,-0.1,96.0,239.0,8.57,-0.06,97.0,239.1,10.13,-0.12,97.0,236.0,12.65,-0.75,52.0,238.4,5.79,-3.38,1.0,0.09,0.09,0.14,0.1,0.13,0.1,0.13,0.1,0.05,0.17,0.34
8/10/2020 6:00 AM,233.4,3.85,-0.02,98.0,229.9,4.23,-0.02,96.0,238.0,4.94,0.02,94.0,236.6,6.3,-0.2,92.0,239.5,5.69,-0.07,94.0,241.0,6.34,-0.16,96.0,237.5,7.47,-0.12,97.0,238.8,8.56,-0.15,97.0,240.8,10.12,-0.17,95.0,229.2,19.27,-1.63,6.0,246.8,24.99,-2.02,3.0,0.09,0.16,0.23,0.2,0.2,0.18,0.15,0.12,0.1,0.2,0.17
8/10/2020 6:10 AM,236.6,3.18,0.0,97.0,231.6,3.32,-0.01,97.0,233.9,3.99,0.02,96.0,236.8,4.51,-0.05,94.0,239.3,5.2,-0.08,94.0,234.1,5.93,0.0,96.0,233.9,7.35,-0.06,97.0,235.4,8.52,-0.02,98.0,237.9,9.89,-0.12,94.0,288.3,5.37,-3.09,3.0,226.9,4.89,-4.16,5.0,0.11,0.13,0.17,0.2,0.14,0.1,0.09,0.05,0.09,0.96,0.41
8/10/2020 6:20 AM,221.5,2.7,0.05,96.0,226.0,3.14,0.01,97.0,222.7,3.79,0.08,97.0,225.9,4.21,0.12,97.0,227.9,5.0,0.14,98.0,234.0,6.31,0.07,98.0,231.8,6.99,-0.01,98.0,233.8,7.83,-0.01,98.0,236.9,9.17,-0.04,98.0,237.0,11.48,-0.37,72.0,313.6,18.19,-3.0,4.0,0.13,0.12,0.09,0.08,0.08,0.11,0.06,0.05,0.06,0.25,0.61
8/10/2020 6:30 AM,222.7,3.44,0.01,98.0,223.4,3.84,0.03,98.0,226.2,4.58,0.02,96.0,226.6,4.8,0.04,97.0,231.8,5.32,0.08,98.0,232.4,6.05,0.06,98.0,232.3,6.87,0.06,98.0,234.7,7.8,0.06,99.0,237.4,9.34,-0.01,98.0,232.6,9.97,-0.07,82.0,115.5,5.58,-4.78,5.0,0.09,0.08,0.08,0.08,0.06,0.12,0.09,0.05,0.11,0.27,0.87
8/10/2020 6:40 AM,219.3,3.64,-0.01,97.0,217.0,3.85,-0.01,96.0,220.8,4.4,0.01,96.0,220.4,5.1,-0.02,98.0,226.2,5.47,0.02,98.0,229.8,6.44,0.02,97.0,237.5,7.45,-0.08,98.0,232.4,8.15,-0.03,98.0,234.9,9.4,-0.09,99.0,234.6,12.54,-0.36,76.0,257.3,14.19,-4.98,6.0,0.09,0.09,0.07,0.11,0.11,0.12,0.11,0.1,0.09,0.18,0.33
8/10/2020 6:50 AM,220.3,4.3,-0.03,97.0,214.4,5.21,-0.07,98.0,217.9,5.55,-0.06,98.0,223.6,5.91,-0.08,97.0,233.7,6.66,-0.07,98.0,230.5,8.11,-0.2,97.0,232.6,8.84,-0.24,97.0,232.3,9.42,-0.21,97.0,228.7,11.27,-0.29,96.0,237.5,14.25,-0.75,90.0,264.5,9.93,-5.31,26.0,0.07,0.11,0.14,0.16,0.14,0.16,0.16,0.14,0.18,0.2,0.49
8/10/2020 7:00 AM,217.2,3.98,-0.05,96.0,217.9,4.93,-0.16,96.0,218.4,5.54,-0.01,96.0,225.9,5.55,-0.09,96.0,227.9,5.99,-0.05,98.0,229.9,6.88,-0.1,97.0,231.3,7.98,-0.12,96.0,234.7,8.92,-0.12,97.0,238.9,10.29,-0.22,96.0,233.5,16.26,-1.01,51.0,216.7,9.7,-5.25,3.0,0.13,0.14,0.17,0.15,0.07,0.09,0.1,0.11,0.08,0.21,0.52
8/10/2020 7:10 AM,220.3,4.38,-0.05,97.0,215.7,5.0,-0.1,97.0,223.2,5.69,-0.11,95.0,224.9,6.33,-0.2,95.0,229.1,6.23,-0.11,97.0,229.1,6.87,-0.07,98.0,237.8,8.03,-0.27,96.0,236.1,8.88,-0.21,97.0,240.6,9.85,-0.28,97.0,229.7,13.37,-0.65,92.0,224.8,13.55,-4.08,25.0,0.1,0.09,0.13,0.2,0.16,0.14,0.11,0.1,0.11,0.23,0.24
8/10/2020 7:20 AM,221.8,3.97,-0.03,97.0,220.5,4.62,-0.04,97.0,224.5,5.01,0.0,95.0,227.4,5.43,0.0,96.0,233.0,6.51,-0.01,95.0,230.5,6.65,0.08,96.0,239.6,8.23,0.22,95.0,239.4,8.39,0.1,94.0,245.1,8.79,0.12,94.0,232.5,15.15,0.26,46.0,213.4,18.11,0.34,24.0,0.1,0.07,0.16,0.17,0.21,0.21,0.24,0.17,0.18,0.2,0.3
8/10/2020 7:30 AM,217.6,3.47,-0.01,96.0,208.0,4.66,-0.04,95.0,223.4,5.81,-0.08,93.0,223.9,5.51,-0.06,93.0,221.9,6.29,-0.04,96.0,232.2,6.44,0.0,97.0,234.2,7.62,-0.06,95.0,233.3,8.38,-0.04,93.0,241.2,9.26,-0.04,93.0,226.7,10.67,-0.11,90.0,218.0,17.27,-0.99,21.0,0.1,0.24,0.23,0.14,0.12,0.07,0.15,0.2,0.13,0.22,0.32
8/10/2020 7:40 AM,226.7,3.89,0.0,97.0,221.7,4.73,-0.07,96.0,222.1,5.53,-0.09,95.0,221.7,5.96,-0.09,94.0,224.2,6.85,-0.1,96.0,232.6,6.6,-0.03,97.0,235.5,7.61,-0.06,92.0,225.0,10.1,-0.14,91.0,229.1,10.7,-0.21,90.0,220.1,12.66,-0.22,75.0,236.5,30.65,0.01,4.0,0.09,0.26,0.16,0.2,0.12,0.16,0.26,0.19,0.17,0.19,0.27
8/10/2020 7:50 AM,232.8,3.89,-0.02,98.0,231.6,4.36,-0.06,96.0,228.4,5.06,0.01,93.0,229.4,5.86,0.0,91.0,230.5,6.09,-0.04,94.0,234.1,6.87,-0.03,96.0,241.2,7.28,-0.01,93.0,237.5,8.42,-0.13,92.0,233.5,9.83,-0.19,92.0,230.2,12.85,-0.17,42.0,191.9,35.97,3.97,2.0,0.07,0.12,0.17,0.21,0.19,0.15,0.11,0.12,0.16,0.2,0.16
8/10/2020 8:00 AM,238.9,3.83,0.04,98.0,236.2,4.22,0.06,97.0,238.4,4.94,-0.01,95.0,233.2,6.05,0.0,93.0,233.5,6.85,-0.09,92.0,236.4,6.99,-0.05,94.0,235.4,8.29,-0.08,94.0,236.2,9.44,-0.11,93.0,225.7,11.14,-0.43,49.0,228.3,23.68,-0.71,4.0,175.6,5.57,-2.91,4.0,0.09,0.14,0.2,0.18,0.15,0.15,0.15,0.16,0.25,0.23,0.46
8/10/2020 8:10 AM,233.5,4.63,0.06,97.0,236.9,5.4,-0.02,95.0,241.6,5.86,-0.07,93.0,235.7,6.21,-0.02,91.0,242.7,7.18,-0.28,89.0,234.6,8.77,-0.27,90.0,243.8,8.84,-0.21,91.0,232.5,10.52,-0.57,83.0,222.7,19.68,-0.22,19.0,291.5,7.02,-0.8,15.0,149.1,7.42,-2.49,29.0,0.1,0.17,0.37,0.36,0.39,0.21,0.28,0.25,0.18,0.79,0.51
8/10/2020 8:20 AM,229.8,5.17,0.05,98.0,232.9,6.01,-0.05,94.0,228.5,6.55,-0.14,92.0,226.1,7.13,-0.14,90.0,228.4,8.89,-0.32,90.0,233.4,8.78,-0.18,93.0,237.7,9.26,-0.15,94.0,236.1,11.72,-0.59,58.0,199.8,8.36,-3.48,7.0,191.2,6.74,-3.27,8.0,216.9,10.41,-2.63,3.0,0.08,0.09,0.16,0.2,0.15,0.13,0.13,0.18,0.22,0.22,0.5
8/10/2020 8:30 AM,235.1,5.2,0.07,98.0,229.9,5.64,0.06,97.0,228.9,6.11,0.06,92.0,216.5,8.23,-0.32,86.0,223.1,7.29,-0.18,91.0,226.7,8.19,-0.21,92.0,231.1,8.5,-0.19,94.0,234.0,9.69,-0.18,93.0,213.4,15.3,-0.54,32.0,102.4,25.78,-4.8,10.0,92.2,16.31,-5.23,4.0,0.08,0.13,0.13,0.15,0.26,0.19,0.17,0.15,0.17,0.08,0.2
8/10/2020 8:40 AM,235.4,4.38,0.07,97.0,232.9,4.69,0.06,97.0,231.7,5.12,0.08,95.0,234.4,5.71,0.01,93.0,233.5,6.01,-0.04,92.0,232.7,6.6,-0.13,94.0,234.2,7.9,-0.07,96.0,237.8,8.83,-0.08,94.0,176.6,2.48,-1.68,19.0,96.5,13.29,-5.4,2.0,95.5,20.06,-5.78,2.0,0.08,0.11,0.06,0.14,0.21,0.21,0.14,0.09,0.39,0.36,0.06
8/10/2020 8:50 AM,226.4,4.21,0.06,97.0,229.0,4.88,0.06,98.0,234.6,5.53,-0.02,95.0,222.1,5.76,0.03,92.0,225.6,7.21,-0.12,91.0,227.4,7.93,-0.2,93.0,229.9,8.36,-0.15,94.0,240.4,9.01,-0.12,95.0,232.1,13.5,-0.8,54.0,221.8,11.48,-2.19,6.0,227.2,9.39,-2.2,5.0,0.09,0.12,0.12,0.14,0.14,0.13,0.08,0.08,0.26,0.19,1.89
8/10/2020 9:00 AM,228.4,4.67,0.02,99.0,223.4,4.94,0.02,96.0,228.6,5.84,0.03,95.0,230.5,6.39,-0.04,93.0,228.8,7.08,-0.22,92.0,237.9,7.02,-0.16,92.0,233.4,8.19,-0.25,95.0,235.7,9.44,-0.22,95.0,239.1,10.4,-0.56,78.0,236.6,11.63,-2.59,30.0,236.2,8.49,-4.37,7.0,0.09,0.14,0.11,0.14,0.2,0.15,0.15,0.11,0.19,0.35,0.93
8/10/2020 9:10 AM,237.7,4.21,0.03,99.0,230.9,4.61,0.06,98.0,235.6,5.14,0.02,97.0,237.4,5.23,-0.01,95.0,239.9,5.95,-0.05,95.0,241.0,6.9,-0.18,95.0,236.2,7.82,-0.15,96.0,237.6,8.29,-0.06,95.0,249.8,9.37,-0.51,71.0,261.2,9.66,-2.09,28.0,25.3,8.02,-3.96,27.0,0.1,0.08,0.09,0.2,0.22,0.2,0.1,0.18,0.28,0.46,0.5
8/10/2020 9:20 AM,230.6,4.52,0.04,98.0,237.8,4.96,0.01,97.0,234.6,5.18,0.05,94.0,234.5,5.76,-0.07,90.0,239.1,5.98,-0.22,90.0,236.1,7.01,-0.24,92.0,235.0,7.3,-0.16,96.0,240.3,8.6,-0.19,91.0,249.0,10.11,-0.99,36.0,250.8,6.99,-2.26,16.0,70.0,17.55,-4.09,19.0,0.09,0.09,0.16,0.26,0.18,0.17,0.11,0.19,0.44,0.51,0.34
8/10/2020 9:30 AM,232.5,5.13,0.07,98.0,233.5,5.22,0.07,98.0,234.6,5.57,0.07,97.0,236.5,6.17,-0.01,94.0,233.9,6.5,-0.17,95.0,235.5,7.66,-0.15,98.0,235.1,8.56,-0.17,94.0,237.8,9.09,-0.98,41.0,176.5,1.75,-3.66,4.0,271.2,5.65,-3.44,8.0,77.6,6.13,-3.92,9.0,0.09,0.09,0.14,0.14,0.13,0.08,0.17,0.27,0.89,0.32,1.23
8/10/2020 9:40 AM,234.8,5.04,0.0,97.0,231.5,5.59,-0.08,95.0,228.2,6.5,-0.15,93.0,224.5,6.85,-0.2,91.0,225.8,7.17,-0.14,91.0,234.8,7.23,-0.13,93.0,235.1,8.74,-0.15,93.0,220.6,11.82,-0.61,55.0,215.8,11.67,-3.06,10.0,34.4,2.15,-4.68,10.0,177.6,10.97,-3.06,22.0,0.09,0.12,0.17,0.17,0.15,0.09,0.12,0.17,0.46,0.97,0.86
8/10/2020 9:50 AM,237.4,5.12,0.05,96.0,235.2,5.39,-0.05,98.0,237.3,6.29,-0.08,97.0,229.3,6.24,-0.1,96.0,231.6,6.95,-0.11,96.0,234.7,7.44,-0.12,97.0,230.6,8.27,-0.06,93.0,222.0,12.59,-1.6,58.0,275.0,5.05,-4.89,21.0,120.9,7.93,-3.62,14.0,232.6,3.65,-4.97,10.0,0.08,0.11,0.12,0.1,0.09,0.09,0.11,0.25,0.46,0.75,0.58
8/10/2020 10:00 AM,237.6,4.97,-0.02,99.0,233.0,5.34,-0.07,98.0,227.1,6.33,-0.06,98.0,227.1,6.54,-0.02,97.0,237.1,7.21,-0.07,97.0,236.8,7.49,-0.03,98.0,238.6,8.69,-0.13,96.0,251.8,10.79,-0.43,93.0,250.7,11.88,-1.15,66.0,267.4,14.79,-2.78,25.0,266.0,25.12,-1.24,26.0,0.12,0.16,0.12,0.08,0.08,0.12,0.14,0.18,0.28,0.46,0.27
8/10/2020 10:10 AM,227.3,4.85,0.1,99.0,232.0,5.6,-0.02,99.0,221.9,5.82,-0.03,98.0,227.9,6.64,-0.05,97.0,223.9,7.5,-0.16,98.0,229.9,6.85,-0.12,99.0,237.8,8.01,-0.13,99.0,233.8,8.96,-0.28,97.0,229.9,9.54,-0.7,94.0,234.1,4.37,-2.07,85.0,164.0,2.2,-3.42,73.0,0.17,0.12,0.29,0.14,0.14,0.18,0.08,0.16,0.33,1.06,1.08
8/10/2020 10:20 AM,234.5,4.57,0.07,98.0,230.6,5.0,0.02,98.0,234.8,5.5,0.02,98.0,235.1,5.99,-0.08,99.0,236.1,6.75,0.01,98.0,236.8,7.06,-0.04,98.0,241.5,7.79,-0.09,99.0,240.1,8.94,-0.21,97.0,254.2,8.4,-0.38,94.0,237.3,8.63,-0.89,90.0,233.9,2.78,-2.23,53.0,0.08,0.09,0.15,0.13,0.11,0.06,0.06,0.11,0.31,0.42,2.98
8/10/2020 10:30 AM,237.4,3.92,-0.04,97.0,240.1,4.73,-0.05,98.0,238.8,5.33,0.0,98.0,243.5,5.78,-0.08,98.0,239.3,6.56,-0.06,98.0,246.8,6.99,-0.12,98.0,245.2,6.89,-0.08,98.0,244.5,7.81,-0.16,97.0,242.7,9.63,-0.36,96.0,252.3,4.02,-1.1,91.0,138.7,4.55,-2.63,85.0,0.23,0.14,0.09,0.11,0.09,0.1,0.14,0.12,0.19,1.08,0.93
8/10/2020 10:40 AM,244.4,3.68,-0.02,97.0,235.6,4.07,-0.06,98.0,239.6,5.54,-0.17,98.0,239.9,5.21,-0.05,98.0,249.0,5.34,-0.06,99.0,242.7,5.98,-0.1,98.0,245.0,7.44,-0.19,98.0,250.1,7.42,-0.12,99.0,253.6,8.92,-0.33,97.0,182.9,7.64,-0.89,79.0,174.4,2.78,-2.34,66.0,0.21,0.27,0.15,0.18,0.14,0.12,0.08,0.11,0.29,0.43,1.49
8/10/2020 10:50 AM,243.6,3.14,-0.01,96.0,240.7,3.71,-0.14,98.0,241.9,5.0,-0.09,98.0,240.5,5.03,-0.13,99.0,248.8,5.71,-0.22,99.0,249.4,6.62,-0.19,99.0,252.4,7.04,-0.12,98.0,253.1,7.89,-0.14,98.0,256.4,9.24,-0.22,97.0,224.8,5.24,-1.14,88.0,107.0,1.8,-1.71,64.0,0.12,0.12,0.1,0.1,0.11,0.11,0.08,0.06,0.13,0.76,0.7
8/10/2020 11:00 AM,226.4,2.78,-0.08,95.0,238.6,3.88,-0.18,98.0,239.5,4.6,-0.06,98.0,239.5,4.97,-0.05,98.0,240.6,5.19,-0.07,99.0,244.1,6.02,-0.09,99.0,256.2,6.42,-0.04,99.0,253.4,7.7,-0.11,99.0,252.3,8.44,-0.12,97.0,247.3,7.29,-1.51,91.0,112.1,18.07,-3.27,49.0,0.57,0.12,0.09,0.06,0.09,0.08,0.13,0.07,0.18,0.94,0.33
8/10/2020 11:10 AM,240.3,2.9,0.02,96.0,238.7,4.08,-0.04,98.0,240.1,4.9,-0.04,99.0,238.1,5.34,-0.09,99.0,248.6,5.48,-0.04,99.0,250.8,6.2,-0.06,99.0,251.9,6.72,-0.1,99.0,255.0,7.75,-0.09,99.0,259.6,7.92,-0.1,96.0,176.2,1.71,-0.74,75.0,86.6,11.17,0.29,36.0,0.16,0.08,0.08,0.1,0.08,0.11,0.08,0.04,0.35,2.9,1.23
8/10/2020 11:20 AM,241.9,3.62,-0.01,97.0,244.9,4.21,-0.11,99.0,245.1,4.83,-0.08,99.0,246.0,5.14,-0.07,99.0,247.9,5.71,-0.04,99.0,248.4,6.41,-0.08,98.0,256.1,7.23,-0.15,99.0,257.4,8.95,-0.24,99.0,257.5,9.16,-0.51,95.0,200.4,1.33,-3.32,86.0,122.1,2.66,-3.79,61.0,0.17,0.12,0.1,0.09,0.07,0.08,0.08,0.08,0.21,3.67,0.86
8/10/2020 11:30 AM,229.6,3.91,0.08,98.0,239.8,4.28,-0.01,99.0,238.4,4.22,-0.01,99.0,237.1,4.64,-0.03,99.0,242.5,5.74,-0.05,99.0,244.6,6.42,0.02,99.0,252.3,7.35,-0.06,98.0,252.7,8.22,-0.09,98.0,259.2,8.15,-0.33,92.0,178.9,6.49,-1.2,62.0,102.6,5.04,-2.95,27.0,0.11,0.1,0.09,0.08,0.06,0.05,0.1,0.08,0.33,0.7,1.48
8/10/2020 11:40 AM,231.1,3.73,0.22,97.0,226.3,4.31,0.12,98.0,229.5,4.39,0.12,98.0,227.7,4.92,0.0,97.0,229.9,5.59,-0.1,99.0,236.7,5.99,-0.11,99.0,243.0,6.39,-0.06,99.0,231.8,7.75,-0.22,95.0,240.9,8.16,0.0,94.0,231.6,8.07,-0.32,91.0,214.8,9.9,-0.33,88.0,0.13,0.12,0.15,0.11,0.15,0.14,0.1,0.22,0.22,0.34,0.42
8/10/2020 11:50 AM,232.5,3.75,0.04,98.0,235.2,4.05,-0.04,98.0,233.8,4.05,-0.04,99.0,231.3,4.02,-0.04,99.0,233.0,5.0,-0.08,98.0,236.3,5.54,-0.12,99.0,241.1,5.41,-0.14,98.0,248.5,5.88,-0.25,96.0,250.4,7.06,-0.19,95.0,246.5,7.45,-0.2,94.0,252.9,8.87,-0.2,91.0,0.12,0.13,0.11,0.18,0.22,0.1,0.1,0.25,0.17,0.12,0.27
8/10/2020 12:00 PM,216.9,4.11,0.07,99.0,219.0,3.76,0.08,99.0,221.1,3.97,0.07,97.0,227.4,3.85,0.09,98.0,228.8,4.33,0.08,98.0,234.2,4.44,-0.04,98.0,241.1,4.54,0.01,98.0,237.0,5.42,-0.02,96.0,253.0,5.63,0.04,96.0,257.6,7.01,0.01,96.0,258.2,7.9,0.06,94.0,0.12,0.13,0.11,0.12,0.17,0.13,0.26,0.32,0.26,0.2,0.17
8/10/2020 12:10 PM,231.7,3.94,-0.11,98.0,227.8,4.19,-0.2,98.0,225.5,4.37,-0.19,98.0,230.2,4.28,-0.22,99.0,227.5,4.31,-0.12,98.0,232.6,4.91,-0.11,98.0,237.9,4.87,-0.13,98.0,254.5,5.01,-0.05,98.0,253.4,6.04,-0.03,97.0,262.9,6.93,-0.03,97.0,258.4,8.37,-0.15,96.0,0.11,0.09,0.11,0.14,0.12,0.17,0.21,0.17,0.12,0.17,0.15
8/10/2020 12:20 PM,228.8,3.56,-0.01,99.0,225.2,3.79,-0.01,98.0,235.1,3.53,-0.03,98.0,230.9,3.55,-0.04,98.0,236.3,3.81,0.04,98.0,237.9,3.78,0.01,98.0,245.4,4.91,-0.01,97.0,252.6,5.59,0.01,96.0,253.9,5.98,0.04,95.0,250.3,6.45,0.1,94.0,249.5,7.73,-0.08,94.0,0.14,0.13,0.14,0.15,0.22,0.35,0.2,0.13,0.25,0.32,0.18
8/10/2020 12:30 PM,230.5,3.35,0.08,98.0,240.1,3.2,0.1,98.0,235.2,3.47,0.1,99.0,232.3,3.68,0.13,98.0,223.9,4.78,-0.03,97.0,244.9,4.38,0.02,96.0,245.1,5.18,0.02,95.0,233.9,6.24,-0.09,92.0,233.9,7.51,-0.12,92.0,234.5,6.8,-0.27,92.0,237.2,7.61,-0.21,90.0,0.14,0.18,0.14,0.14,0.17,0.21,0.27,0.28,0.3,0.43,0.38